• In United Kingdom
  • List of Countries
  • For 7 days
  • Water Temperature
  • Satellite Maps
  • Weather Map
  • Weather Widgets
  • user-avatar
    Login

    Hourly Weather Ordino

    Today, 24 July, Monday

    Time Temperature Precipitation Wind Pressure Humidity
    00:00 +13°C° 0.1 mm 1 mps 636 mmHg 95%
    01:00 +12°C° 0.2 mm 1 mps 636 mmHg 95%
    02:00 +12°C° 0.2 mm 1 mps 636 mmHg 95%
    03:00 +12°C° 0.2 mm 1 mps 635 mmHg 95%
    04:00 +12°C° 0.1 mm 1 mps 636 mmHg 93%
    05:00 +12°C° 0.1 mm 2 mps 636 mmHg 90%
    06:00 +13°C° 0.1 mm 2 mps 636 mmHg 88%
    07:00 +14°C° 0 mm 2 mps 636 mmHg 80%
    08:00 +15°C° 0 mm 2 mps 637 mmHg 72%
    09:00 +17°C° 0 mm 3 mps 637 mmHg 63%
    10:00 +18°C° 0 mm 3 mps 637 mmHg 57%
    11:00 +19°C° 0 mm 3 mps 638 mmHg 52%
    12:00 +20°C° 0 mm 4 mps 638 mmHg 46%
    13:00 +20°C° 0 mm 4 mps 638 mmHg 46%
    14:00 +20°C° 0 mm 4 mps 638 mmHg 45%
    15:00 +20°C° 0 mm 4 mps 638 mmHg 45%
    16:00 +19°C° 0 mm 4 mps 637 mmHg 50%
    17:00 +18°C° 0 mm 4 mps 637 mmHg 55%
    18:00 +15°C° 0 mm 4 mps 637 mmHg 60%
    19:00 +14°C° 0 mm 3 mps 636 mmHg 67%
    20:00 +12°C° 0 mm 3 mps 636 mmHg 75%
    21:00 +10°C° 0 mm 3 mps 636 mmHg 83%
    22:00 +9°C° 0 mm 3 mps 636 mmHg 82%
    23:00 +8°C° 0 mm 3 mps 635 mmHg 82%

    Tomorrow, 25 July, Tuesday

    Time Temperature Precipitation Wind Pressure Humidity
    00:00 +8°C° 0 mm 3 mps 635 mmHg 82%
    01:00 +7°C° 0 mm 3 mps 635 mmHg 79%
    02:00 +7°C° 0 mm 3 mps 634 mmHg 77%
    03:00 +7°C° 0 mm 3 mps 634 mmHg 74%
    04:00 +7°C° 0 mm 3 mps 634 mmHg 73%
    05:00 +8°C° 0 mm 3 mps 634 mmHg 72%
    06:00 +9°C° 0 mm 3 mps 635 mmHg 71%
    07:00 +11°C° 0 mm 3 mps 635 mmHg 64%
    08:00 +13°C° 0 mm 3 mps 636 mmHg 57%
    09:00 +16°C° 0 mm 3 mps 637 mmHg 49%
    10:00 +17°C° 0 mm 3 mps 637 mmHg 46%
    11:00 +18°C° 0 mm 3 mps 637 mmHg 43%
    12:00 +19°C° 0 mm 3 mps 637 mmHg 40%
    13:00 +19°C° 0 mm 4 mps 637 mmHg 40%
    14:00 +20°C° 0 mm 4 mps 636 mmHg 40%
    15:00 +20°C° 0 mm 4 mps 636 mmHg 40%
    16:00 +19°C° 0 mm 4 mps 636 mmHg 45%
    17:00 +17°C° 0 mm 4 mps 635 mmHg 50%
    18:00 +16°C° 0 mm 3 mps 635 mmHg 56%
    19:00 +13°C° 0.1 mm 3 mps 635 mmHg 65%
    20:00 +11°C° 0.1 mm 3 mps 634 mmHg 75%
    21:00 +10°C° 0.1 mm 3 mps 634 mmHg 84%
    22:00 +9°C° 0 mm 3 mps 634 mmHg 85%
    23:00 +9°C° 0 mm 3 mps 634 mmHg 86%

    Day after tomorrow, 26 July, Wednesday

    Time Temperature Precipitation Wind Pressure Humidity
    00:00 +9°C° 0 mm 3 mps 634 mmHg 86%
    01:00 +8°C° 0 mm 3 mps 633 mmHg 86%
    02:00 +8°C° 0 mm 2 mps 633 mmHg 86%
    03:00 +7°C° 0 mm 2 mps 633 mmHg 85%
    04:00 +8°C° 0 mm 2 mps 633 mmHg 82%
    05:00 +8°C° 0 mm 2 mps 633 mmHg 78%
    06:00 +9°C° 0 mm 2 mps 633 mmHg 74%
    07:00 +12°C° 0 mm 2 mps 634 mmHg 65%
    08:00 +14°C° 0 mm 2 mps 635 mmHg 55%
    09:00 +17°C° 0 mm 2 mps 636 mmHg 45%
    10:00 +18°C° 0 mm 2 mps 636 mmHg 42%
    11:00 +19°C° 0 mm 2 mps 637 mmHg 39%
    12:00 +21°C° 0 mm 3 mps 637 mmHg 36%
    13:00 +21°C° 0 mm 3 mps 637 mmHg 37%
    14:00 +21°C° 0 mm 3 mps 637 mmHg 38%
    15:00 +21°C° 0 mm 3 mps 636 mmHg 39%
    16:00 +20°C° 0 mm 3 mps 636 mmHg 44%
    17:00 +19°C° 0 mm 3 mps 635 mmHg 49%
    18:00 +18°C° 0 mm 2 mps 635 mmHg 54%
    19:00 +16°C° 0 mm 2 mps 635 mmHg 62%
    20:00 +14°C° 0 mm 2 mps 634 mmHg 70%
    21:00 +12°C° 0 mm 2 mps 634 mmHg 78%
    22:00 +12°C° 0 mm 2 mps 634 mmHg 76%
    23:00 +12°C° 0 mm 2 mps 634 mmHg 74%

    27 July, Thursday

    Time Temperature Precipitation Wind Pressure Humidity
    00:00 +12°C° 0 mm 2 mps 634 mmHg 72%
    01:00 +10°C° 0 mm 2 mps 634 mmHg 70%
    02:00 +11°C° 0 mm 1 mps 633 mmHg 69%
    03:00 +11°C° 0 mm 1 mps 633 mmHg 67%
    04:00 +12°C° 0 mm 1 mps 634 mmHg 66%
    05:00 +13°C° 0 mm 1 mps 634 mmHg 65%
    06:00 +14°C° 0 mm 1 mps 635 mmHg 64%
    07:00 +16°C° 0 mm 1 mps 636 mmHg 57%
    08:00 +20°C° 0 mm 1 mps 637 mmHg 51%
    09:00 +22°C° 0 mm 1 mps 638 mmHg 44%
    10:00 +24°C° 0 mm 1 mps 638 mmHg 42%
    11:00 +25°C° 0 mm 1 mps 638 mmHg 40%
    12:00 +26°C° 0 mm 2 mps 638 mmHg 38%
    13:00 +26°C° 0 mm 2 mps 638 mmHg 39%
    14:00 +26°C° 0 mm 2 mps 638 mmHg 40%
    15:00 +26°C° 0 mm 2 mps 638 mmHg 41%
    16:00 +25°C° 0 mm 2 mps 637 mmHg 47%
    17:00 +23°C° 0 mm 1 mps 637 mmHg 53%
    18:00 +22°C° 0 mm 1 mps 636 mmHg 59%
    19:00 +20°C° 0.1 mm 1 mps 636 mmHg 65%
    20:00 +19°C° 0.1 mm 1 mps 636 mmHg 71%
    21:00 +16°C° 0.1 mm 1 mps 636 mmHg 77%
    22:00 +15°C° 0.1 mm 1 mps 636 mmHg 79%
    23:00 +15°C° 0.1 mm 1 mps 636 mmHg 80%

    28 July, Friday

    Time Temperature Precipitation Wind Pressure Humidity
    00:00 +15°C° 0.1 mm 1 mps 636 mmHg 81%
    01:00 +14°C° 0.1 mm 1 mps 636 mmHg 82%
    02:00 +14°C° 0.1 mm 1 mps 636 mmHg 82%
    03:00 +14°C° 0.1 mm 1 mps 636 mmHg 82%
    04:00 +15°C° 0 mm 1 mps 636 mmHg 80%
    05:00 +15°C° 0 mm 1 mps 637 mmHg 77%
    06:00 +16°C° 0 mm 1 mps 637 mmHg 75%
    07:00 +19°C° 0 mm 1 mps 638 mmHg 66%
    08:00 +21°C° 0 mm 1 mps 639 mmHg 57%
    09:00 +24°C° 0 mm 2 mps 640 mmHg 49%
    10:00 +25°C° 0.1 mm 2 mps 640 mmHg 46%
    11:00 +26°C° 0.1 mm 3 mps 640 mmHg 44%
    12:00 +27°C° 0.1 mm 3 mps 641 mmHg 42%
    13:00 +27°C° 0.1 mm 3 mps 640 mmHg 42%
    14:00 +27°C° 0.1 mm 3 mps 640 mmHg 42%
    15:00 +27°C° 0.1 mm 3 mps 640 mmHg 41%
    16:00 +26°C° 0 mm 3 mps 640 mmHg 46%
    17:00 +25°C° 0 mm 2 mps 639 mmHg 50%
    18:00 +24°C° 0 mm 2 mps 639 mmHg 55%
    19:00 +21°C° 0 mm 2 mps 638 mmHg 62%
    20:00 +20°C° 0 mm 1 mps 638 mmHg 69%
    21:00 +16°C° 0 mm 1 mps 637 mmHg 76%
    22:00 +16°C° 0 mm 1 mps 637 mmHg 75%
    23:00 +16°C° 0 mm 1 mps 637 mmHg 75%

    29 July, Saturday

    Time Temperature Precipitation Wind Pressure Humidity
    00:00 +16°C° 0 mm 1 mps 637 mmHg 74%
    01:00 +15°C° 0 mm 1 mps 637 mmHg 71%
    02:00 +15°C° 0 mm 1 mps 636 mmHg 67%
    03:00 +15°C° 0 mm 1 mps 636 mmHg 63%
    04:00 +16°C° 0 mm 1 mps 637 mmHg 62%
    05:00 +18°C° 0 mm 1 mps 637 mmHg 61%
    06:00 +18°C° 0 mm 1 mps 637 mmHg 61%
    07:00 +21°C° 0 mm 1 mps 638 mmHg 53%
    08:00 +24°C° 0 mm 2 mps 639 mmHg 45%
    09:00 +26°C° 0 mm 2 mps 641 mmHg 37%
    10:00 +27°C° 0 mm 2 mps 641 mmHg 35%
    11:00 +28°C° 0 mm 2 mps 641 mmHg 33%
    12:00 +29°C° 0 mm 3 mps 641 mmHg 32%
    13:00 +29°C° 0.1 mm 3 mps 641 mmHg 34%
    14:00 +28°C° 0.1 mm 2 mps 640 mmHg 36%
    15:00 +28°C° 0.1 mm 2 mps 640 mmHg 38%
    16:00 +27°C° 0.1 mm 2 mps 640 mmHg 43%
    17:00 +26°C° 0.1 mm 1 mps 640 mmHg 48%
    18:00 +25°C° 0.1 mm 1 mps 640 mmHg 53%
    19:00 +23°C° 0.1 mm 1 mps 639 mmHg 59%
    20:00 +21°C° 0.1 mm 1 mps 639 mmHg 64%
    21:00 +19°C° 0.1 mm 1 mps 638 mmHg 69%
    22:00 +18°C° 0 mm 1 mps 638 mmHg 69%
    23:00 +18°C° 0 mm 1 mps 638 mmHg 69%
    Show more